Theta_e
302 302 302 302 302 302 303 303 304 303 303 300 297 298 296 296 294 307 304 304 304 293 286 291 289 289 291 296 293 295 294 293 293 290 291 289 290 290 289 290 289 291 288 291 291 293 291 292 289 292 293 293 296 297 299 298 297 295 292 292 294 307 284 286 286 286 288 292 295 296 296 294 293 293 293 290 287 288 281 277 281 279 280 277 279 282 286
302 302 301 301 302 302 302 303 303 303 303 300 299 295 295 296 299 301 305 305 302 291 281 282 284 287 292 292 290 294 294 293 291 290 291 289 289 290 290 290 291 291 292 290 288 291 286 293 293 291 293 292 298 299 300 301 298 294 293 290 295 286 285 287 280 280 282 281 285 288 293 293 287 287 289 291 291 289 287 285 282 280 283 279 279 277 285
302 301 301 301 301 302 302 303 303 303 304 304 298 293 293 295 301 302 303 305 302 290 289 287 283 289 292 292 293 294 293 294 292 292 290 292 291 289 288 290 291 291 292 290 292 294 293 290 295 295 296 294 299 300 301 303 301 305 303 307 296 289 285 282 278 276 272 273 274 276 282 285 286 290 290 291 290 288 287 283 279 278 281 281 280 282 289
301 301 301 301 301 301 302 302 303 303 304 304 300 296 293 295 286 295 297 300 297 295 298 296 294 290 289 285 289 294 290 292 292 292 291 291 292 290 291 289 290 290 292 289 290 291 294 293 290 289 290 292 297 297 301 303 303 309 311 304 296 288 289 283 279 281 281 279 280 284 287 286 285 288 290 289 288 288 285 282 277 278 281 283 286 288 288
301 301 301 301 301 302 302 302 303 303 303 304 299 297 295 295 289 287 287 294 294 292 293 295 296 288 290 284 290 290 291 291 291 292 289 292 291 290 290 289 287 288 290 288 289 290 292 294 293 292 292 293 294 297 297 299 306 310 304 305 290 287 286 289 289 288 287 290 290 290 292 289 289 288 288 290 290 289 288 279 281 284 284 279 288 291 287
301 300 301 301 302 302 302 303 303 303 303 304 301 292 293 289 291 296 294 289 284 286 286 292 293 295 295 289 292 289 288 288 286 290 291 292 292 288 291 291 288 289 290 287 284 286 287 287 286 292 290 291 291 292 295 295 301 304 297 299 292 287 284 290 291 289 291 291 291 291 290 290 290 289 289 288 290 291 288 289 289 283 278 282 288 289 286
300 301 301 302 302 302 302 303 303 303 302 303 299 291 291 297 296 296 299 290 290 288 290 295 293 292 294 288 290 289 288 287 289 288 289 290 290 289 281 286 290 290 290 288 284 284 281 282 287 287 287 288 286 287 289 294 294 297 295 296 292 289 285 288 290 288 289 289 289 290 289 288 289 289 289 290 290 290 289 288 289 289 287 289 288 286 286
300 301 301 301 302 302 303 303 303 303 303 303 298 297 296 296 294 292 297 296 293 293 294 294 292 287 294 288 288 290 288 287 288 289 287 284 288 291 287 286 289 290 290 288 285 287 286 286 281 287 286 285 286 287 287 288 291 293 293 296 293 290 285 292 288 286 286 288 290 289 288 288 286 288 289 290 290 289 289 290 289 289 287 287 287 285 284
300 300 301 302 302 302 303 303 303 303 303 299 298 296 302 303 305 303 296 288 289 293 292 291 288 284 285 283 289 288 288 287 290 288 289 289 288 289 287 288 288 289 289 288 288 291 289 289 289 288 285 283 289 286 289 290 289 289 289 291 290 289 285 289 287 285 284 287 287 287 288 287 286 285 287 287 287 285 286 285 289 288 285 286 286 284 283
301 301 302 302 302 302 302 303 303 303 303 299 296 297 303 302 307 306 297 287 293 289 290 287 285 283 285 288 288 288 289 291 290 286 290 291 291 290 289 289 289 286 287 286 288 290 290 290 290 289 291 291 291 291 291 290 289 287 288 288 284 285 286 282 283 283 282 287 288 287 287 285 282 283 286 288 288 288 289 289 290 289 290 287 285 284 288
301 301 301 302 302 302 302 302 303 303 302 297 293 295 298 297 296 298 294 287 285 286 286 284 285 289 290 292 290 291 290 290 288 284 284 290 290 292 290 289 287 282 286 290 294 292 292 292 293 294 295 294 293 292 293 293 291 289 288 284 284 284 287 282 283 282 282 286 286 284 280 274 277 289 292 292 286 287 285 285 287 289 290 287 289 288 289
301 301 302 302 302 302 303 303 303 304 301 299 300 296 300 300 298 299 288 285 285 287 285 285 286 289 289 290 291 289 289 289 289 290 287 288 290 291 289 287 285 284 290 293 291 291 293 293 295 295 294 294 293 293 292 291 291 293 289 288 283 283 281 280 279 281 281 281 280 279 274 276 287 291 291 290 289 289 287 288 289 290 290 289 288 288 288
301 301 302 302 302 303 303 303 304 304 304 301 301 295 299 300 296 296 292 286 284 286 283 286 288 289 289 290 289 288 289 290 290 290 289 289 289 289 291 289 287 290 294 292 291 290 288 285 285 286 288 287 292 292 291 290 290 291 291 290 286 281 283 278 277 276 280 279 276 275 276 285 290 290 291 293 291 289 287 286 288 290 290 290 287 288 289
301 302 302 302 303 303 303 303 304 304 304 303 299 299 300 300 297 296 288 283 285 287 287 285 287 287 287 287 287 287 288 288 288 289 289 290 288 289 291 291 293 292 291 291 288 285 283 280 279 279 284 281 283 285 286 289 289 289 288 290 288 286 282 281 279 281 280 280 280 279 285 285 287 286 287 289 286 286 284 280 284 289 291 290 288 288 289
301 301 302 302 303 303 303 304 304 305 305 305 302 301 300 300 299 297 297 288 284 286 285 282 285 287 288 288 286 283 283 284 286 284 288 290 289 291 292 293 292 292 290 288 285 283 281 278 278 277 279 274 273 278 282 283 284 288 288 288 288 285 284 281 280 278 282 281 278 280 279 277 282 287 291 293 293 291 290 286 283 290 290 292 290 288 288
301 302 302 302 303 303 303 304 304 305 305 306 303 301 300 301 300 299 295 288 282 282 285 288 289 288 286 287 287 285 283 279 283 281 281 284 288 290 293 293 293 293 294 289 283 281 278 279 273 270 273 276 272 279 278 282 281 287 287 288 289 287 284 282 282 278 280 279 277 277 276 278 284 286 289 292 293 292 291 285 281 287 289 289 291 289 289
301 301 301 302 303 303 304 304 305 305 306 306 302 301 298 300 299 297 296 290 283 283 288 289 290 289 286 284 286 285 283 283 280 282 281 282 287 288 291 291 290 293 290 284 281 278 279 278 276 275 274 279 277 277 280 277 274 277 285 285 283 283 278 278 279 274 273 276 275 275 279 279 284 288 290 292 293 293 289 278 279 285 287 288 289 290 290
301 301 301 302 302 303 304 305 305 306 306 306 303 300 300 301 300 299 295 289 280 285 288 290 291 286 285 284 283 288 287 287 287 282 281 284 284 287 287 289 290 293 292 283 279 279 276 272 275 273 275 283 281 278 272 274 274 274 278 276 277 276 276 277 274 270 275 277 276 279 280 286 289 289 291 293 294 291 281 277 281 287 287 287 287 288 288
300 301 301 302 302 303 304 305 306 306 307 306 303 301 300 301 301 299 292 286 285 284 289 292 293 290 292 293 290 291 292 290 286 283 282 280 287 289 290 293 291 287 288 280 281 278 276 279 279 277 276 279 281 275 279 278 278 281 275 273 273 277 276 276 275 276 273 275 277 277 280 286 288 290 292 294 289 281 280 284 288 287 287 288 288 287 288
300 301 301 302 302 303 304 305 306 306 307 307 305 299 301 300 301 301 290 284 282 284 288 290 292 293 293 292 289 289 290 289 286 284 277 282 287 289 285 284 289 287 285 282 281 280 278 278 279 279 277 277 281 282 282 283 286 281 277 278 275 275 277 275 273 272 272 270 273 274 274 284 289 289 291 291 285 283 286 287 288 289 288 288 288 288 287
300 301 301 302 303 304 305 305 306 306 307 307 305 299 298 297 300 302 300 289 286 284 286 290 292 293 294 295 296 294 290 290 287 286 286 285 289 283 280 279 285 283 284 278 280 280 277 278 281 279 281 279 282 281 279 280 282 286 282 280 282 285 277 274 274 278 274 268 269 273 282 286 290 290 285 286 287 289 289 288 286 289 289 288 288 288 289
300 301 301 302 303 304 305 305 306 307 307 307 303 298 295 298 299 302 302 292 288 286 289 291 291 293 295 296 296 296 297 297 297 292 290 288 290 288 285 286 285 286 287 284 284 282 283 282 282 276 278 279 281 277 282 279 276 281 284 283 278 286 280 280 278 283 275 276 280 285 288 289 290 290 289 289 290 291 290 289 288 288 289 290 289 289 290
300 301 302 302 303 304 305 305 306 306 307 307 301 295 296 298 299 300 293 291 287 288 289 288 288 291 294 295 297 298 296 297 298 294 291 289 288 289 289 287 290 291 290 284 282 284 282 281 279 280 279 278 278 279 280 278 278 283 281 287 286 290 290 290 286 283 288 288 289 289 289 289 289 290 291 290 291 292 292 290 288 288 290 290 289 290 291
300 301 302 302 303 304 305 305 306 306 306 307 302 294 294 296 299 292 290 288 285 286 288 288 286 284 287 292 295 294 294 295 298 300 296 294 285 287 288 290 294 290 290 291 288 288 283 282 284 282 280 280 280 277 277 279 283 286 285 285 288 289 288 287 284 286 283 278 288 287 287 289 290 290 291 292 292 291 291 290 290 290 291 291 291 291 291
300 301 301 302 303 304 305 305 306 306 305 307 305 301 301 297 298 294 287 287 283 280 281 282 283 291 292 292 293 293 294 295 300 298 296 295 292 288 289 296 294 291 290 291 287 288 283 283 284 280 279 283 284 279 281 282 283 288 282 284 284 283 289 285 285 284 283 282 287 288 289 289 291 290 289 289 290 291 291 290 289 290 290 290 291 291 290
300 301 301 302 303 304 305 305 306 305 304 306 307 297 297 297 298 295 293 290 285 283 282 280 287 293 291 294 294 293 295 296 296 297 297 297 295 296 296 293 292 291 289 289 291 286 282 282 280 279 282 281 285 280 280 283 284 283 282 281 283 286 289 279 283 282 285 288 289 288 288 288 289 290 289 291 290 290 290 290 290 290 289 289 291 291 290
300 301 301 302 303 304 304 305 305 304 304 305 302 298 297 297 300 300 293 289 287 282 280 282 283 288 292 293 294 294 296 295 296 296 296 296 296 295 295 294 292 292 293 289 285 284 283 281 281 283 282 283 283 283 284 285 283 278 278 284 287 286 281 285 284 281 281 281 284 286 280 280 285 287 288 289 290 290 290 290 290 289 289 288 288 288 288
300 301 301 302 303 304 304 305 305 304 304 304 302 299 296 296 298 299 296 293 288 283 282 280 284 288 291 294 295 294 295 296 295 295 294 295 295 294 294 293 292 290 288 288 285 284 283 284 284 281 280 284 283 283 281 282 281 282 281 282 284 283 285 285 282 282 281 286 288 289 287 286 287 287 288 289 290 290 289 289 289 288 288 288 287 286 287
300 301 302 302 303 304 304 305 305 304 304 302 295 292 293 296 297 299 301 297 289 285 281 283 285 287 285 289 295 294 295 295 295 294 293 293 293 293 293 292 291 288 288 285 283 283 283 282 280 283 285 286 284 280 278 278 275 277 280 286 287 287 288 286 286 287 288 290 289 289 287 286 287 289 290 290 290 290 289 288 288 289 288 288 287 288 288
300 301 302 302 303 304 304 304 304 304 303 293 291 288 285 291 293 298 299 301 292 287 284 282 282 284 288 291 292 292 293 295 294 294 293 292 292 291 291 291 289 289 288 286 287 284 284 284 281 283 287 286 282 276 274 278 276 280 284 286 287 287 287 288 288 288 286 290 289 289 288 289 289 289 289 289 290 290 288 288 288 288 287 287 287 287 286
301 301 302 302 303 303 304 304 305 304 300 293 288 284 281 283 290 297 301 299 293 288 282 282 283 282 285 291 291 293 292 294 293 292 291 290 290 289 290 292 288 289 287 284 283 283 281 283 279 283 287 289 280 274 279 278 278 280 284 285 286 287 288 287 288 289 290 288 289 289 289 288 288 289 288 288 288 289 289 289 290 292 289 289 287 287 287
301 301 302 302 303 303 304 305 305 303 295 294 291 288 289 289 293 298 302 300 295 290 283 282 282 281 281 284 289 292 294 293 291 288 288 290 291 290 291 290 289 289 287 283 282 281 283 280 280 283 284 286 284 276 279 279 278 281 284 284 286 286 287 286 287 288 289 290 290 288 287 286 288 288 286 289 289 288 289 289 290 289 293 290 289 288 287
301 302 302 303 303 304 304 305 304 303 296 298 302 303 302 303 304 303 301 296 291 286 282 280 279 279 281 285 289 292 294 288 289 285 289 289 289 287 288 286 286 288 294 287 282 281 282 278 279 283 284 283 278 276 279 275 281 284 285 286 286 286 286 286 287 288 289 290 290 286 285 286 287 290 288 290 289 290 288 288 289 289 289 289 288 288 288
301 302 302 303 303 304 304 304 304 303 300 293 290 291 296 304 302 303 297 291 289 286 282 282 278 278 281 284 288 290 291 284 286 282 284 290 287 285 284 283 285 284 286 284 282 283 282 283 282 279 279 281 277 280 277 281 283 284 284 285 285 286 286 286 287 287 289 290 290 290 290 290 289 287 287 288 289 289 290 288 289 288 287 287 287 288 288
302 302 302 303 303 304 304 304 295 296 294 294 295 292 293 304 305 304 302 290 286 284 281 281 278 277 280 278 278 285 289 286 286 284 283 287 286 287 284 283 282 283 284 285 281 278 280 281 282 282 280 277 276 277 276 282 283 283 284 285 284 285 285 285 285 287 287 287 288 287 286 286 286 285 286 287 289 289 288 288 288 289 287 287 287 287 286
302 302 303 304 304 303 296 299 294 292 289 291 293 300 305 306 305 298 297 294 291 281 277 279 277 278 276 276 278 285 290 285 284 284 286 281 284 286 281 282 282 282 283 278 280 278 280 285 281 279 273 275 276 276 283 283 284 284 285 285 285 287 286 287 286 285 285 285 286 285 285 286 287 284 284 286 287 287 288 286 286 286 286 284 284 283 284
302 303 304 302 295 293 289 289 294 294 293 296 300 304 304 303 298 296 292 294 296 290 282 279 281 281 279 280 278 282 285 282 280 281 281 281 281 280 278 277 280 282 281 280 276 279 283 284 279 276 276 275 279 281 284 285 285 285 285 286 286 286 286 286 286 285 285 284 285 285 285 284 284 284 285 284 284 285 286 286 285 286 284 284 284 284 285
303 303 293 291 286 284 286 286 291 297 303 303 302 293 291 290 287 283 284 284 287 291 282 281 278 281 281 280 282 286 283 280 280 281 281 280 282 282 278 281 281 281 277 276 281 284 278 275 275 275 278 279 281 284 285 286 286 286 287 286 285 286 286 286 286 286 284 282 282 283 283 283 284 284 285 284 285 285 286 287 286 286 287 286 286 285 284
300 293 290 289 287 286 285 291 298 302 298 297 291 287 285 283 283 284 283 282 283 284 281 283 283 280 280 281 283 286 286 281 277 276 278 282 280 280 278 278 280 278 277 275 280 283 278 276 271 271 276 280 283 284 285 285 285 286 288 287 287 286 286 286 288 287 286 285 285 285 285 284 284 284 283 283 284 284 285 285 285 285 286 285 284 283 284
292 291 289 285 286 288 292 296 299 296 292 288 284 283 283 283 283 281 280 283 281 280 281 284 282 280 282 285 284 285 287 283 277 277 277 281 283 279 280 278 280 277 274 272 278 279 274 273 273 272 275 278 281 283 283 285 286 285 285 285 285 286 287 288 287 289 288 286 286 285 283 284 286 286 285 284 285 284 284 284 284 284 285 285 284 285 286
289 288 286 285 288 290 292 294 292 287 285 283 281 281 280 281 282 281 281 277 279 281 282 284 284 285 285 282 281 281 287 286 282 280 278 280 283 282 279 278 279 275 274 275 280 276 273 273 271 273 277 278 280 283 284 284 285 285 285 285 286 286 286 285 286 285 286 286 285 284 284 285 286 286 286 286 286 286 286 286 285 284 284 285 285 285 285
289 288 290 292 293 293 293 288 284 284 282 282 280 278 278 279 280 280 280 278 279 278 285 283 283 283 285 285 285 283 285 286 281 278 279 280 282 277 278 277 277 273 272 276 278 274 272 272 272 273 276 280 282 283 284 284 284 285 284 284 286 286 286 286 286 286 287 287 286 286 285 285 285 285 285 285 286 286 286 285 285 284 285 285 286 285 285
298 298 295 292 288 284 283 284 283 281 278 277 273 276 277 277 279 278 278 278 279 281 284 287 285 285 289 286 285 286 285 287 286 281 278 279 282 278 275 274 275 274 277 279 275 272 270 269 270 276 281 282 283 284 285 286 285 285 285 285 286 287 288 287 287 287 286 287 287 286 286 285 285 285 285 285 285 285 285 285 286 286 284 285 286 285 285
294 295 291 285 284 283 283 280 283 282 277 276 275 274 275 276 277 276 277 280 281 283 284 285 284 284 283 284 282 284 282 285 283 279 279 278 278 275 274 274 275 276 278 276 273 273 271 270 276 281 282 283 285 283 284 285 285 285 284 285 286 287 287 286 286 286 285 285 285 285 284 285 285 285 284 286 288 287 286 285 285 285 285 285 286 286 285
286 284 279 279 278 280 281 275 279 277 275 275 278 274 273 272 271 272 277 277 283 285 283 282 283 284 284 284 283 282 283 282 281 280 279 277 274 275 274 275 275 274 274 272 271 271 273 275 278 281 282 283 284 284 284 285 286 286 285 284 285 286 287 287 286 286 285 286 286 285 285 285 286 285 285 286 286 288 288 288 286 286 286 286 286 286 287
285 280 277 277 275 277 277 274 274 275 276 277 277 277 277 277 277 278 281 282 282 283 285 284 283 284 282 282 283 282 278 276 277 279 279 275 274 276 277 277 275 272 271 270 269 269 273 277 280 283 284 285 285 285 285 285 286 286 286 285 285 286 286 286 286 286 286 286 285 286 285 284 286 286 285 285 286 287 287 288 287 288 286 286 286 287 288
285 283 279 277 274 276 279 276 275 276 277 278 278 278 280 282 281 280 281 284 285 285 284 283 283 284 283 282 282 281 279 278 278 279 277 277 276 277 279 276 273 270 270 269 267 266 268 276 282 285 285 285 285 285 285 285 286 286 287 286 285 285 285 286 286 286 285 285 285 285 285 285 284 284 285 286 286 286 286 286 287 286 288 289 288 285 286
283 282 280 276 273 276 277 278 277 279 279 281 279 279 281 282 282 282 283 284 285 286 286 284 285 283 283 282 280 278 279 278 278 279 278 278 278 273 270 271 270 270 269 270 269 272 276 279 283 285 286 286 286 285 285 286 286 286 286 286 285 285 286 286 285 285 285 286 286 286 285 285 285 286 287 287 286 285 286 287 288 286 286 286 286 285 286
285 279 278 275 276 276 276 276 279 280 279 279 278 279 282 283 282 282 283 284 286 286 286 285 280 279 280 279 277 280 280 278 275 276 278 274 272 271 269 268 268 271 272 272 271 275 279 283 285 286 286 286 286 286 286 287 287 287 287 287 286 287 287 287 287 286 286 286 286 286 286 285 285 286 286 286 288 287 286 286 286 286 286 287 287 286 287
285 281 281 280 279 277 276 278 280 278 277 278 280 280 280 281 281 283 284 286 285 285 284 284 282 281 280 279 277 275 277 276 276 278 273 272 269 271 270 268 267 270 269 274 274 276 279 283 285 286 286 286 286 287 286 286 286 287 287 287 287 287 288 287 286 286 287 286 286 286 285 285 286 286 287 287 286 285 285 285 286 286 286 285 286 285 287
283 282 280 279 280 275 278 277 275 276 278 279 279 280 281 282 282 285 285 285 286 283 281 280 279 278 279 276 274 273 276 279 278 275 273 271 273 271 269 269 267 272 275 277 279 280 283 285 287 287 286 286 286 287 287 287 287 287 287 287 287 288 287 287 287 287 287 287 286 284 285 286 287 286 285 284 285 285 286 287 285 285 285 285 285 286 285
279 279 279 278 280 279 281 280 279 280 281 281 280 280 282 284 284 286 286 287 285 285 280 278 278 277 274 274 274 276 279 277 275 274 275 274 275 272 268 267 271 277 278 279 281 281 284 286 288 287 288 287 287 287 287 287 287 287 287 287 287 287 287 287 287 287 287 286 285 285 286 285 285 285 285 286 285 286 286 286 286 285 286 286 286 286 286
Wind_Speed
10 10 9 9 9 11 12 13 15 14 15 5 5 3 2 1 1 2 11 11 6 2 2 0 1 2 3 3 7 4 5 3 5 3 3 2 2 2 4 2 2 6 3 3 4 6 6 4 3 2 4 3 2 7 6 2 5 6 1 1 0 5 4 6 3 2 4 5 4 6 8 6 7 6 4 3 3 0 4 2 5 5 0 3 2 4 3
10 9 9 9 10 11 12 13 14 14 13 7 5 3 2 3 1 3 4 7 0 1 1 1 0 3 5 1 6 4 5 2 6 1 3 2 3 2 1 4 5 4 3 3 3 1 6 5 4 4 1 3 5 6 5 2 1 1 4 4 3 2 2 7 3 2 3 4 3 6 7 7 4 2 4 3 1 4 2 6 1 6 0 3 7 6 4
11 10 10 9 10 12 13 13 14 14 13 9 3 3 2 3 1 2 3 5 2 2 3 3 1 2 2 2 6 4 2 5 5 1 5 3 1 1 4 1 0 4 2 4 6 7 9 4 5 3 3 2 1 7 7 5 4 3 3 6 3 7 2 4 7 7 5 2 2 2 0 1 1 2 7 5 6 1 0 2 2 3 1 3 4 5 4
11 10 10 10 10 11 12 13 12 13 11 10 3 2 2 0 4 1 4 3 3 3 1 1 1 2 2 2 6 2 2 1 3 1 5 4 4 6 0 2 5 6 10 8 8 9 6 6 2 2 1 0 2 3 6 6 3 8 13 5 5 4 2 1 5 8 10 6 4 2 4 3 5 2 8 8 3 4 5 4 4 3 3 4 2 6 10
11 11 10 10 10 12 12 12 11 11 11 8 1 2 1 3 2 2 2 1 2 4 2 1 0 2 1 1 1 1 1 1 3 7 3 6 3 3 6 2 3 3 11 5 8 6 12 11 11 3 4 1 0 5 6 6 9 8 5 5 6 5 6 6 10 10 6 4 5 3 5 9 4 5 4 6 6 3 7 3 2 2 8 2 1 9 6
11 11 11 11 12 12 12 11 10 10 9 8 2 2 1 2 1 0 2 2 3 2 7 5 5 8 0 4 1 2 2 4 1 3 3 1 6 4 8 10 5 5 8 5 6 3 5 4 4 2 3 2 4 5 8 5 8 5 2 4 5 5 4 1 12 9 10 8 10 12 13 11 9 9 8 9 6 11 7 2 2 3 3 7 9 9 7
12 11 11 12 12 12 13 13 11 10 10 4 1 1 3 2 2 2 1 0 1 4 2 2 6 6 5 2 1 1 3 5 2 1 2 6 6 4 3 6 6 6 4 8 4 1 6 2 2 1 1 1 1 2 2 4 7 5 4 5 2 7 6 2 10 12 9 7 7 10 17 9 12 11 11 9 12 11 11 10 7 9 8 9 13 12 10
11 11 11 12 13 13 13 13 11 11 11 3 2 2 1 1 2 2 3 1 1 2 1 1 2 3 3 3 2 1 1 5 3 4 4 4 3 3 11 4 9 10 11 8 6 1 4 5 4 1 3 1 1 1 2 1 3 5 3 1 4 7 1 5 2 6 5 6 6 9 11 13 13 10 9 8 9 11 8 8 10 14 12 10 12 12 8
11 12 12 13 13 13 13 14 13 11 9 1 1 3 3 3 2 1 1 1 1 1 1 2 2 1 1 3 2 4 6 7 7 5 4 4 3 3 9 8 8 8 12 10 6 2 6 7 6 4 4 4 1 2 1 2 3 3 3 3 3 7 4 1 2 8 2 1 7 10 14 15 14 12 10 8 7 8 6 4 4 2 9 9 11 7 4
12 13 13 13 13 13 13 13 13 10 9 1 2 3 2 3 2 1 3 1 2 1 0 1 3 3 2 2 1 2 1 1 6 7 7 9 4 5 7 5 11 5 11 7 3 2 3 4 3 5 6 6 6 6 4 3 2 2 2 0 4 2 8 4 2 8 2 3 1 5 5 7 7 6 5 8 8 7 6 8 10 8 2 6 6 4 5
13 13 13 13 13 13 13 13 12 9 6 3 2 2 3 5 4 3 1 1 2 2 1 2 5 1 1 3 6 5 4 6 3 9 0 2 3 1 4 7 8 3 4 1 0 3 4 7 6 7 12 13 11 8 11 14 10 2 2 3 2 3 6 4 1 5 5 4 3 1 3 3 1 2 4 2 2 8 11 6 8 9 6 3 4 8 8
13 13 14 14 14 14 14 13 12 10 7 6 2 3 2 3 3 3 1 3 1 3 3 2 2 2 5 4 7 5 8 9 6 5 8 1 1 0 7 5 6 5 2 1 2 4 4 4 8 12 12 13 15 16 17 15 11 9 4 6 4 5 5 2 2 6 6 1 1 4 1 3 2 3 6 9 7 12 14 11 10 8 9 11 11 10 9
13 13 14 15 15 15 14 14 12 11 4 2 1 3 2 3 1 2 1 2 3 4 5 3 4 5 6 11 10 5 6 5 6 8 6 5 4 3 2 2 2 1 0 1 5 7 5 4 5 4 4 5 8 15 17 15 13 11 9 5 6 4 7 3 5 2 3 2 2 3 2 3 4 4 4 3 3 3 7 10 9 9 6 7 9 9 9
13 14 15 15 15 15 16 15 16 12 9 3 1 3 3 2 2 2 1 1 3 2 1 5 5 6 8 7 7 3 4 7 2 4 5 1 4 3 1 2 1 1 5 6 7 5 5 5 4 4 4 6 4 7 4 4 9 13 12 10 5 8 5 6 4 3 5 2 3 5 6 5 2 0 2 3 2 2 1 4 3 6 4 5 8 9 9
14 15 15 15 16 16 17 17 17 15 13 9 3 4 4 4 3 2 1 0 3 1 3 3 3 2 4 3 3 5 6 2 6 3 1 0 3 0 1 1 2 1 2 3 2 6 3 3 3 3 2 4 2 1 2 3 5 6 7 6 5 2 6 3 8 1 2 6 5 4 1 3 4 2 3 2 2 2 1 5 1 3 6 3 8 10 9
15 16 16 17 17 17 18 18 18 17 15 13 6 5 5 6 5 2 1 1 2 6 6 2 3 4 4 3 2 5 2 3 1 1 4 4 2 2 1 1 1 1 6 7 4 4 2 4 2 4 1 1 1 1 1 3 3 5 6 8 9 9 9 7 9 4 3 3 5 3 4 1 2 3 2 2 3 2 0 3 2 1 3 5 4 7 8
16 17 17 18 18 18 18 15 15 14 13 10 6 5 5 4 7 6 3 1 4 3 3 4 0 1 6 4 5 5 1 3 1 4 2 3 2 1 1 3 2 5 3 5 5 4 4 5 2 4 0 1 1 2 0 2 1 5 10 8 12 10 6 5 8 4 1 5 3 3 0 1 1 2 2 3 3 2 0 1 2 2 3 3 2 7 8
17 18 19 19 19 19 18 17 16 15 12 11 6 5 5 3 6 4 1 0 3 4 4 4 1 4 4 2 2 1 2 2 4 2 3 2 1 2 2 3 3 3 3 4 1 5 3 2 3 2 2 1 0 2 1 1 2 1 2 2 3 6 4 6 6 4 5 5 2 3 1 0 1 2 3 4 3 1 1 3 1 2 3 3 2 3 3
17 18 19 19 20 19 19 18 17 16 14 10 5 4 7 6 6 3 0 2 5 4 7 4 2 4 1 2 3 2 1 2 2 4 2 4 1 1 0 0 1 1 8 4 4 3 3 0 0 2 3 2 3 2 0 3 0 1 2 2 3 3 2 1 3 5 3 2 5 3 1 0 1 2 2 2 2 3 4 2 3 6 4 3 3 4 4
17 18 19 20 20 20 19 19 18 17 14 11 4 4 5 3 8 11 4 3 3 4 4 4 3 5 1 2 2 3 2 5 2 6 3 3 3 2 2 3 5 4 4 4 3 1 4 1 1 1 2 1 1 3 3 2 0 0 1 1 3 1 2 1 2 1 3 2 3 2 2 1 3 4 1 4 1 1 4 6 6 6 6 7 6 6 6
18 18 19 20 20 20 20 20 19 17 14 13 2 1 3 0 6 6 2 3 5 6 5 4 1 3 2 5 3 2 3 3 2 4 4 2 1 4 2 2 2 1 1 2 4 0 2 1 0 1 1 3 1 3 4 3 2 1 2 1 2 0 3 0 1 2 4 2 2 2 1 2 4 2 2 1 2 5 5 7 7 5 5 6 7 7 6
18 18 19 20 20 20 20 20 19 18 16 12 3 2 2 1 3 3 5 3 5 5 3 1 1 2 1 1 3 3 3 2 2 5 6 3 1 1 3 4 2 2 1 4 3 2 2 2 1 2 3 2 4 4 2 4 1 3 2 2 1 4 1 2 5 1 1 2 3 2 3 4 5 6 8 8 6 5 4 7 8 8 5 5 7 8 6
18 18 19 20 20 21 20 20 20 18 16 14 4 1 3 4 4 1 2 7 3 2 3 5 3 3 3 1 3 4 2 1 5 3 4 6 2 2 3 2 0 1 1 1 4 6 4 6 2 4 4 2 5 4 4 3 2 1 2 3 5 5 8 5 7 7 10 10 7 5 5 6 7 7 7 9 8 7 7 8 8 3 5 5 8 8 8
18 18 19 20 20 20 20 20 20 19 17 14 2 1 2 2 3 3 7 6 4 5 4 7 6 4 2 4 4 4 3 1 1 1 2 4 4 1 1 1 1 3 2 1 4 7 4 3 3 2 5 2 4 4 4 4 4 6 5 4 2 1 1 2 6 7 1 5 2 6 7 6 8 8 7 7 6 5 5 6 7 6 5 5 5 7 6
18 18 19 19 20 20 20 20 20 19 18 14 7 2 1 4 3 3 4 2 3 4 4 3 4 3 4 4 3 1 3 3 1 4 4 4 5 6 3 0 1 5 4 1 1 8 5 5 2 3 5 1 4 1 1 5 5 2 3 2 2 3 2 7 5 5 4 6 5 7 7 7 6 5 8 7 6 5 4 4 4 4 3 4 4 5 5
18 18 19 19 19 19 20 19 19 18 19 17 7 3 4 1 4 2 8 5 3 5 5 2 2 4 3 6 5 3 3 4 6 10 7 2 3 8 8 1 6 4 5 3 7 8 5 5 4 1 5 1 2 4 2 1 5 1 5 1 2 4 2 3 2 6 8 10 7 7 8 8 4 2 3 4 5 6 5 5 6 5 5 4 3 2 3
18 18 19 19 19 19 19 19 18 19 19 15 6 4 5 2 5 5 2 4 6 4 5 3 3 5 5 5 4 4 4 5 9 10 10 9 9 7 9 9 10 7 9 7 5 5 4 4 5 3 2 3 3 3 4 4 3 3 3 2 2 6 6 6 10 11 5 4 7 8 7 5 3 2 4 4 4 6 6 6 6 5 5 4 4 3 2
18 18 19 19 18 19 18 18 17 18 17 12 4 4 4 7 4 3 3 2 2 5 4 1 2 2 4 5 6 5 6 7 9 11 9 10 10 8 9 10 8 7 3 7 5 6 4 7 4 0 2 1 5 4 2 2 3 5 5 1 1 7 9 5 5 6 6 4 11 1 5 8 5 6 4 4 5 6 7 7 7 5 5 4 5 3 0
18 18 18 18 18 18 18 17 17 17 17 9 1 3 5 2 1 6 6 2 7 7 5 1 2 5 3 2 6 6 7 8 11 10 10 9 10 9 10 9 8 5 6 7 6 3 5 2 1 3 2 3 6 2 4 4 3 3 1 1 5 3 5 3 5 9 6 8 5 4 7 9 6 5 5 5 4 5 5 4 5 6 6 5 5 6 7
18 18 18 18 18 18 18 16 17 17 14 2 3 5 5 2 3 7 7 5 2 5 4 3 5 0 3 2 4 4 5 8 10 13 12 10 9 8 6 8 5 4 6 4 5 6 0 3 2 2 2 2 3 2 3 0 3 1 2 3 4 3 3 4 4 9 10 6 4 5 6 8 6 6 4 4 4 6 7 7 6 5 4 4 5 4 2
18 18 18 18 17 17 18 17 16 16 10 5 4 3 3 2 2 3 8 5 2 7 3 4 2 2 3 0 1 6 6 5 8 8 7 5 5 4 2 6 5 3 8 4 6 1 2 4 2 2 1 5 4 3 3 3 3 1 1 2 5 6 6 6 5 5 7 5 5 5 6 6 4 4 2 1 2 2 1 1 2 3 3 3 4 3 2
18 18 18 18 17 17 16 15 15 12 5 6 4 1 2 2 2 7 7 4 1 6 4 4 2 3 1 3 2 2 1 2 3 4 4 3 6 5 9 7 4 3 5 5 2 3 3 0 3 2 4 3 5 4 3 4 5 4 2 3 4 6 7 6 5 5 6 7 10 10 7 4 5 8 6 6 5 4 5 6 6 4 3 2 0 1 3
18 18 18 18 17 16 16 15 14 7 1 2 5 5 7 8 9 7 4 2 5 1 3 4 2 1 1 1 4 4 3 4 7 5 4 3 2 3 5 5 4 6 4 7 4 2 1 2 1 5 2 2 4 3 4 3 3 5 6 7 6 6 7 6 6 6 7 7 7 8 8 7 9 9 4 6 5 6 4 1 0 1 1 0 2 4 4
18 18 18 17 16 15 14 15 10 2 3 3 3 3 1 4 5 6 2 5 4 1 3 2 1 2 0 3 4 2 3 3 0 2 3 3 0 4 1 4 4 4 6 4 2 3 1 4 5 1 3 4 2 5 3 3 4 4 4 6 6 7 7 8 7 7 7 8 6 7 9 9 5 3 2 3 5 3 1 2 3 3 2 2 4 5 5
19 18 17 17 15 13 13 8 4 3 1 0 1 4 3 8 7 4 0 1 3 2 2 1 2 3 1 2 2 2 1 4 2 1 4 1 2 2 1 5 4 6 2 3 5 2 3 1 2 5 1 3 4 2 1 5 4 4 5 5 4 7 6 8 6 8 7 5 5 4 4 5 6 5 5 5 6 5 4 4 4 5 4 5 5 5 4
19 18 16 15 13 8 2 2 3 3 3 1 2 5 9 10 5 3 2 3 2 3 2 1 2 2 3 3 3 1 1 3 1 1 0 0 3 3 5 3 6 1 1 4 1 2 3 0 3 2 1 4 2 3 7 6 7 6 8 8 7 10 9 9 7 5 5 5 7 5 6 5 7 5 5 6 6 5 6 4 4 4 5 4 5 4 2
17 15 14 9 3 2 3 1 2 2 0 5 11 14 12 3 1 2 5 3 2 3 3 2 3 3 4 2 1 3 3 3 3 4 4 3 1 2 4 4 3 1 3 3 3 3 1 1 6 2 0 2 1 3 7 8 7 7 6 7 7 5 6 6 7 7 6 6 8 7 7 6 5 5 5 5 5 6 8 7 7 7 5 5 4 4 5
15 8 2 3 2 2 1 2 1 6 10 11 8 3 6 7 0 3 3 2 2 3 3 3 2 1 1 3 2 1 3 1 2 3 1 1 2 1 1 3 0 2 2 0 1 2 2 5 2 2 1 2 1 4 6 6 7 6 6 6 5 5 6 7 7 9 7 5 4 3 3 4 5 4 7 7 8 9 9 8 7 6 7 6 6 4 3
2 2 3 3 3 1 1 2 6 15 6 1 3 1 1 1 1 0 0 1 2 1 2 3 3 1 4 4 1 2 4 4 2 3 3 2 2 0 1 4 1 3 1 2 1 2 2 2 2 3 1 1 3 3 1 5 4 6 7 7 6 5 7 8 9 11 9 8 9 7 8 7 7 3 3 5 3 2 5 6 5 5 6 5 4 3 4
6 5 1 1 1 2 4 6 11 5 3 0 2 2 1 1 2 1 1 1 1 2 1 1 1 3 3 7 6 1 0 3 2 0 2 1 1 4 1 2 1 4 0 1 2 2 4 1 1 2 2 2 3 1 3 5 6 5 4 5 5 6 8 10 7 7 10 6 6 6 4 5 7 8 7 5 7 6 3 2 3 4 4 5 4 6 6
4 2 2 1 3 3 5 7 6 2 1 1 1 1 1 0 0 0 1 1 0 1 0 2 1 2 1 2 2 3 2 3 1 3 4 3 1 3 3 1 1 2 0 0 1 2 2 2 1 3 7 5 4 3 4 3 4 4 2 4 5 5 5 5 4 4 6 5 3 3 3 4 6 8 7 8 8 8 7 7 5 4 5 5 5 5 3
2 2 1 3 3 4 4 2 2 1 1 0 2 0 0 1 1 1 1 2 2 1 0 2 1 4 2 3 3 4 1 0 2 2 2 1 0 1 1 0 1 2 1 3 1 3 3 2 1 2 5 5 4 3 5 5 4 6 4 5 6 6 7 7 6 2 5 8 5 5 4 6 6 6 6 7 7 8 7 5 4 4 5 4 1 2 4
9 5 2 1 1 1 0 1 2 1 1 0 2 0 1 1 1 3 1 1 1 2 1 0 1 0 1 3 2 0 2 1 1 1 2 1 0 2 2 1 1 1 1 0 2 2 1 2 4 7 5 5 5 6 6 7 7 7 7 7 7 8 10 9 9 7 4 8 8 7 6 6 5 5 5 6 6 5 2 3 6 5 4 3 4 3 3
1 1 1 1 1 1 1 1 1 1 1 1 1 2 1 0 1 1 1 2 1 1 1 6 2 6 3 2 3 0 1 1 4 3 2 0 1 0 1 1 1 1 0 2 1 2 3 2 7 7 7 4 3 4 4 5 7 7 5 5 6 8 8 8 7 8 4 2 4 4 4 5 5 4 4 5 8 9 5 4 3 4 4 4 4 4 3
0 1 2 1 1 1 1 2 2 2 2 2 1 2 3 4 4 2 4 3 2 4 1 4 5 6 3 1 2 1 1 2 1 3 1 1 2 1 1 1 1 1 2 2 0 1 1 1 2 2 5 6 6 5 4 6 9 11 9 5 7 9 10 10 8 7 6 6 6 5 5 4 6 5 5 5 5 7 9 6 4 4 4 5 4 3 3
0 2 1 2 2 2 1 0 0 0 2 2 2 6 4 5 5 4 5 1 3 3 6 4 4 6 3 1 4 2 0 2 2 0 0 2 2 1 0 0 2 1 1 1 2 4 6 6 7 9 9 9 8 6 5 6 6 7 11 10 7 8 8 9 7 8 7 6 5 6 5 5 6 6 5 4 5 5 6 6 5 6 4 4 4 4 3
1 1 2 1 2 1 1 1 2 3 2 2 5 6 6 6 7 3 1 1 4 6 5 1 3 4 6 0 1 1 2 1 2 1 1 1 1 0 1 1 1 0 2 2 3 3 3 5 7 9 9 7 7 6 7 6 7 8 9 8 7 6 5 7 7 7 5 6 6 6 5 6 5 4 5 4 2 3 4 5 5 4 6 6 6 4 3
1 1 1 1 3 1 2 5 1 2 1 3 3 5 5 1 1 3 3 2 5 5 7 5 4 2 3 2 4 2 0 0 2 1 1 1 1 2 1 0 0 1 2 4 6 5 5 6 9 9 9 9 10 9 7 8 7 8 9 8 7 7 6 7 6 6 6 7 6 6 5 6 6 6 6 6 5 4 4 5 6 5 4 3 3 3 2
1 1 1 2 1 2 2 2 2 2 5 3 3 1 2 3 5 6 4 2 6 6 5 6 3 4 1 1 2 1 0 1 2 2 1 1 1 2 2 1 1 2 4 4 4 5 8 9 10 11 10 9 8 9 9 9 10 10 10 10 9 9 8 9 8 7 5 7 7 7 6 5 6 6 5 5 6 5 4 2 2 3 4 4 4 3 1
0 1 1 1 2 3 1 1 0 3 5 5 1 3 4 4 5 6 3 5 3 6 3 5 3 4 1 1 1 2 0 0 1 0 2 0 2 1 1 0 3 4 2 3 3 5 4 6 9 10 10 11 9 10 10 8 9 10 9 9 8 8 9 9 8 7 7 7 6 6 6 6 6 6 7 8 6 3 4 3 4 4 4 4 3 3 2
0 0 2 3 4 3 1 1 1 3 6 6 3 4 4 6 6 4 3 6 5 4 4 3 2 2 1 2 1 1 1 1 2 2 3 3 1 3 3 3 4 6 6 5 5 4 7 9 11 11 10 10 9 9 10 10 10 9 8 8 8 7 7 8 9 8 7 6 6 7 7 7 7 6 4 3 4 4 2 0 1 2 4 4 4 4 3
1 0 2 2 1 2 2 0 1 6 7 6 4 4 3 4 4 3 3 7 6 8 5 1 3 2 2 2 3 2 0 2 0 1 0 2 2 2 3 5 4 6 8 5 4 6 6 8 11 15 14 13 11 9 9 8 8 7 7 8 8 8 7 7 7 7 6 4 4 5 5 4 4 4 4 5 4 4 4 2 2 4 4 5 5 4 3
Wind_Direction
341 339 338 350 355 351 349 350 349 345 343 344 356 315 242 251 83 21 147 180 215 56 68 290 61 263 233 305 289 259 261 243 288 315 333 39 45 34 39 329 86 15 88 58 72 93 74 22 102 136 88 45 1 285 319 140 46 78 89 50 339 89 77 78 36 336 308 306 287 32 32 59 40 25 46 46 31 126 166 169 178 118 154 58 34 68 136
338 341 347 351 355 350 348 349 345 344 347 345 338 290 349 341 101 94 165 198 218 80 142 179 278 277 294 229 254 253 255 310 300 334 349 50 352 72 2 355 42 108 28 72 91 250 100 7 47 65 31 58 316 339 22 96 58 93 207 132 234 78 303 111 111 45 336 338 352 9 355 45 71 34 335 336 12 59 105 105 71 84 259 173 117 161 162
340 349 349 354 351 348 344 343 342 338 342 344 358 338 347 289 344 73 152 204 247 295 198 116 184 297 304 298 296 298 266 206 231 333 28 1 65 69 20 11 75 48 34 62 59 37 104 115 31 89 76 103 316 4 34 17 86 35 178 116 122 84 164 98 138 153 162 176 212 229 11 56 323 49 341 3 36 1 75 96 15 102 310 81 104 116 95
346 352 355 353 348 344 340 340 339 334 333 341 311 312 269 84 108 332 125 206 200 266 241 147 170 257 275 323 263 219 262 276 253 358 61 50 29 55 48 337 54 54 62 43 45 45 31 93 173 56 57 333 5 324 351 34 61 81 69 57 73 114 93 83 159 160 178 193 185 238 114 54 64 325 29 345 350 1 86 100 83 174 172 79 321 161 135
350 359 359 353 348 343 341 339 334 331 329 339 324 258 183 292 103 140 129 123 218 254 335 13 108 225 184 262 285 309 228 268 12 14 89 4 31 63 35 336 62 46 74 78 61 43 76 71 88 49 105 344 203 342 26 12 16 45 54 16 86 72 69 357 80 59 86 99 83 94 96 108 78 63 13 17 29 32 68 89 152 163 103 356 30 126 103
353 358 356 350 347 345 343 342 339 331 329 324 249 324 345 54 285 87 198 133 221 201 290 208 238 253 264 266 313 280 41 32 84 350 54 1 34 91 349 20 35 102 117 123 82 27 70 35 92 64 12 77 357 25 358 43 332 20 45 15 97 115 97 341 85 64 66 71 95 96 80 75 86 74 59 51 45 54 70 41 107 109 135 170 136 108 95
2 359 353 349 346 348 345 342 343 336 331 331 262 33 295 216 272 245 305 316 240 163 210 168 199 249 211 282 276 1 66 58 25 96 357 25 358 57 86 356 15 55 49 89 108 36 88 18 1 114 37 58 54 49 351 12 14 49 49 31 90 94 34 32 99 90 58 52 72 90 98 92 67 57 59 56 63 68 74 70 65 88 80 94 105 95 91
359 357 353 350 348 345 345 345 348 345 339 333 279 243 291 114 22 331 359 28 243 265 299 198 165 241 203 188 310 88 51 71 13 32 78 81 38 9 79 66 51 66 68 72 81 47 148 154 119 248 121 11 84 145 179 182 350 48 57 81 350 101 169 155 69 80 47 38 72 73 86 88 78 50 53 65 75 68 51 74 79 85 76 86 92 94 92
357 353 353 350 348 346 346 349 352 345 349 249 157 292 243 301 291 303 307 9 269 250 215 197 194 179 349 84 357 61 77 79 83 52 21 120 109 63 112 103 71 53 75 71 93 144 117 105 113 167 140 129 199 125 285 117 82 11 29 26 8 64 149 88 72 95 61 347 99 102 93 83 75 51 34 31 39 57 18 46 339 113 129 122 108 100 118
358 354 353 351 348 348 345 349 350 349 344 276 18 254 355 299 283 248 128 151 275 9 321 2 68 14 248 136 294 127 353 96 80 83 22 31 62 121 119 89 87 40 66 67 113 187 131 107 115 85 73 92 71 82 89 81 128 125 84 345 73 84 134 123 127 90 142 186 188 115 108 82 46 21 31 65 82 104 78 39 35 35 103 129 142 135 116
357 355 350 347 347 345 345 346 346 1 14 43 339 329 339 18 343 341 47 120 339 23 3 7 98 243 4 27 83 56 89 63 52 110 56 16 18 344 101 90 91 103 76 121 200 158 131 108 90 83 73 68 66 54 59 49 44 69 139 66 33 70 103 105 112 106 151 191 255 333 49 73 182 346 296 247 161 107 77 48 43 34 48 87 77 113 115
354 353 348 348 346 345 345 344 346 1 63 346 321 292 325 356 316 245 28 90 268 305 83 73 152 80 88 60 78 82 71 72 66 96 119 149 202 82 83 68 85 72 254 281 74 115 113 61 60 59 55 59 63 55 52 49 27 27 41 116 110 100 91 105 102 103 156 188 10 51 57 214 21 54 69 76 88 87 88 66 51 64 77 87 95 107 111
354 353 351 348 346 344 345 342 344 347 30 219 283 300 335 23 291 319 67 105 43 356 59 18 3 86 103 92 76 52 82 80 89 95 97 111 53 25 24 106 107 199 177 77 47 60 88 93 46 67 31 0 47 55 41 37 27 19 35 41 116 105 104 136 39 78 77 52 14 126 227 127 117 99 95 123 86 95 88 62 38 37 72 102 107 106 111
354 355 353 348 347 345 344 343 339 345 339 333 297 284 299 322 326 344 67 86 32 332 118 62 20 69 69 74 101 82 58 54 46 74 81 5 103 79 356 73 303 166 120 92 59 78 63 35 55 26 344 7 6 34 325 37 45 34 15 8 32 123 100 96 76 3 125 99 51 79 121 142 154 114 20 19 51 1 41 116 25 23 28 108 118 121 121
357 355 352 349 348 345 345 342 340 336 333 334 323 280 254 237 235 235 286 81 118 28 59 70 317 336 75 40 68 69 58 359 63 29 324 353 74 266 141 7 346 68 90 73 37 40 128 105 59 76 345 41 66 261 335 25 310 38 33 8 44 57 126 197 103 319 99 129 96 118 164 211 187 124 66 34 354 324 327 95 125 44 20 66 138 136 135
357 354 351 349 345 345 344 343 336 333 329 322 294 290 251 211 195 221 289 135 120 42 324 312 237 223 89 51 69 103 127 66 52 22 3 349 1 356 11 348 280 144 52 73 83 88 54 88 164 84 113 156 258 55 333 354 358 320 22 18 45 36 65 98 105 140 93 93 120 153 187 233 57 128 333 357 324 317 327 72 183 107 42 11 123 136 148
355 353 349 345 341 340 341 335 323 318 311 307 296 295 290 183 177 185 168 96 76 117 245 296 252 197 82 14 21 32 58 77 159 97 51 8 339 308 310 344 333 52 86 79 13 63 44 55 81 120 65 139 76 155 48 56 17 332 336 5 26 36 3 31 65 82 93 131 101 169 4 232 259 267 294 295 323 317 239 299 248 117 43 30 62 146 161
352 350 345 341 338 336 334 325 326 322 315 304 280 270 253 184 196 155 224 112 103 28 325 328 88 61 76 178 144 216 73 38 47 39 104 250 340 13 305 7 16 6 97 80 34 69 65 89 106 110 94 315 148 61 136 190 61 278 328 1 5 360 353 40 133 125 94 85 86 44 24 262 317 327 319 303 257 2 153 233 152 148 80 50 74 114 95
350 346 342 337 336 333 330 327 325 324 321 319 306 273 253 200 185 203 101 86 87 79 293 313 93 108 172 94 110 130 129 131 141 92 11 21 26 275 217 273 115 338 2 124 62 88 106 14 56 102 120 333 32 109 185 49 271 282 57 26 14 20 76 6 70 64 102 133 101 168 175 190 16 304 299 300 84 160 222 122 119 116 112 123 126 106 96
347 343 341 337 334 330 329 327 326 325 327 333 319 261 269 165 187 179 145 100 83 93 346 357 9 48 332 107 68 48 25 31 37 120 149 133 284 27 24 20 342 76 17 61 53 228 95 129 148 125 60 102 69 148 76 91 150 60 134 206 121 217 91 91 108 170 53 35 89 75 177 184 44 308 350 20 139 315 120 117 86 104 115 110 94 101 110
344 341 338 335 333 331 330 328 327 327 328 343 313 249 341 158 166 210 206 127 112 71 350 316 30 2 59 66 74 152 135 143 171 109 203 164 224 80 99 179 222 96 173 115 124 96 141 108 249 100 185 121 189 59 142 135 58 6 117 169 110 189 78 223 256 195 134 109 132 196 27 335 296 218 148 53 51 122 126 119 109 98 105 106 106 94 106
344 341 338 335 334 331 330 328 328 328 333 347 68 171 64 327 179 194 161 130 93 98 175 273 245 298 291 204 174 162 128 115 211 153 135 96 344 143 187 126 166 141 191 119 55 51 21 131 84 63 101 56 23 100 159 77 90 282 17 78 61 339 157 194 125 24 130 154 117 81 70 35 34 88 100 97 99 106 109 102 115 123 107 115 111 117 117
344 341 339 335 333 332 330 331 329 331 338 345 46 119 95 333 351 24 143 68 19 21 357 5 353 347 349 325 212 195 211 164 110 93 124 110 82 36 95 80 13 178 84 97 162 144 166 115 119 153 82 73 137 103 43 108 153 355 57 6 118 108 109 103 85 81 85 67 78 99 75 74 72 68 87 104 103 100 112 119 113 108 122 137 133 137 139
343 342 338 336 333 333 333 333 332 336 340 345 62 106 344 318 316 21 34 66 102 95 14 8 61 350 312 339 335 347 38 28 281 206 162 122 107 44 346 285 157 40 34 347 172 124 172 103 167 123 103 216 100 65 119 77 83 132 122 142 112 338 305 67 98 170 105 72 96 99 108 109 107 101 92 93 103 115 120 111 112 125 130 128 134 136 136
344 342 339 336 335 334 335 334 336 339 341 341 350 223 195 13 6 58 110 91 22 81 122 323 359 249 265 263 254 340 34 312 65 92 75 78 122 137 139 24 166 137 137 154 114 68 46 98 63 59 99 237 110 91 243 115 144 201 89 102 117 31 82 80 81 79 81 120 122 108 101 101 104 110 121 117 113 109 105 108 107 108 114 126 128 115 107
344 341 339 336 334 336 335 337 337 341 345 343 353 81 75 18 296 59 77 70 98 103 92 69 337 326 337 22 15 293 308 13 51 54 47 83 128 131 144 106 39 47 94 62 65 89 96 57 82 98 105 352 83 119 110 242 140 102 106 182 211 153 152 85 206 100 95 94 91 103 101 87 80 97 89 111 133 128 113 109 111 113 112 105 87 74 118
342 341 337 336 335 336 337 336 339 342 344 343 1 50 97 70 17 48 92 150 86 8 39 83 280 305 4 27 345 344 356 18 53 59 52 44 71 82 92 94 96 63 78 55 36 99 70 87 80 71 77 111 111 113 136 69 90 80 72 14 77 78 80 119 110 109 131 161 161 162 123 136 158 175 138 127 117 121 117 114 115 122 123 124 111 80 61
341 339 336 336 335 336 335 335 336 339 338 336 345 34 56 67 23 47 81 104 116 162 159 192 41 292 289 49 5 2 4 40 65 68 63 55 50 60 87 101 99 85 48 81 41 35 49 79 94 212 97 46 62 41 16 128 77 49 44 329 154 126 152 147 117 131 151 164 166 221 115 125 156 160 153 140 137 131 136 143 143 149 158 149 133 131 72
338 337 335 333 334 334 332 330 333 337 337 336 18 21 26 70 77 48 45 35 102 96 97 153 300 19 73 267 317 13 6 50 63 68 70 58 55 54 70 69 80 111 92 71 98 99 85 114 170 86 84 184 99 75 28 47 49 72 301 106 99 126 147 144 148 107 105 151 164 138 137 138 160 158 149 151 153 144 144 148 153 163 171 175 174 177 171
336 334 333 331 331 331 329 326 332 338 335 23 52 49 39 333 353 40 17 31 91 118 89 81 81 240 292 353 347 348 7 38 59 60 55 55 49 49 45 70 44 49 87 110 118 92 71 96 348 5 1 25 109 148 76 148 76 330 316 74 92 73 73 96 113 133 152 171 153 145 136 133 135 149 152 159 165 154 155 173 180 182 195 181 181 204 229
333 331 329 328 327 327 323 323 327 341 357 55 69 55 39 57 300 335 12 11 39 100 123 97 110 287 35 341 46 357 343 20 60 64 51 50 65 47 348 76 47 48 79 31 46 96 83 43 59 4 11 46 97 90 147 110 97 71 336 128 128 115 103 106 101 106 125 122 111 86 87 89 84 72 69 191 181 168 131 163 208 192 182 167 203 198 217
329 326 324 323 323 321 316 318 333 343 20 56 96 155 179 187 231 311 342 349 47 59 72 74 22 15 307 323 318 282 342 349 50 29 17 21 34 13 41 51 88 21 102 110 151 61 35 226 90 27 47 343 71 89 62 79 107 148 143 119 113 112 111 102 96 105 100 112 107 92 87 108 141 155 191 208 197 198 189 192 192 189 178 187 235 211 219
324 322 319 317 318 317 316 320 328 351 333 251 247 251 255 263 284 299 311 343 53 80 116 79 125 206 83 246 322 344 21 26 23 29 33 349 51 26 49 2 23 42 20 76 13 94 218 94 22 59 322 31 79 88 87 111 164 164 156 135 120 123 120 121 123 123 130 135 131 143 166 175 202 204 182 177 184 192 201 195 19 92 93 99 279 293 295
321 317 314 312 312 314 316 317 316 330 352 40 30 348 332 6 354 14 21 80 96 111 75 102 58 54 278 310 78 302 46 104 344 36 75 348 120 66 8 37 5 81 350 89 253 69 5 63 66 126 345 19 16 84 80 126 126 129 121 110 118 115 121 121 130 137 151 158 160 162 179 185 169 98 80 149 198 219 131 118 131 144 172 210 244 243 244
317 313 308 308 308 310 312 324 17 49 88 339 259 256 272 330 329 290 344 103 83 349 27 17 107 93 44 1 68 272 323 81 68 1 115 327 41 106 54 55 338 73 315 80 48 69 65 349 186 67 152 309 44 72 217 167 133 130 119 109 114 115 108 117 157 162 163 157 148 164 137 110 119 163 189 190 199 187 170 189 178 162 183 219 236 249 231
313 310 307 305 302 308 334 16 48 38 28 358 247 269 315 324 344 65 109 99 119 149 85 233 80 118 137 128 131 224 13 57 338 1 123 168 13 19 88 104 66 333 235 75 129 4 74 284 67 112 280 71 190 178 169 153 150 163 151 153 167 145 158 160 167 158 151 151 148 145 148 170 167 178 172 187 188 184 179 166 172 173 185 211 240 249 237
311 307 307 309 334 49 18 236 293 71 3 264 276 295 307 345 333 47 10 30 8 90 136 153 84 195 152 183 252 279 76 137 337 41 351 47 146 304 52 42 98 323 39 18 25 71 301 51 98 92 31 132 205 195 145 148 157 159 169 171 181 153 140 141 140 127 111 119 127 144 159 143 123 144 150 165 165 156 152 170 173 165 177 199 221 214 199
309 315 10 32 38 45 9 333 334 306 314 305 341 9 360 28 59 337 358 37 291 60 357 67 130 224 9 82 131 254 76 243 46 116 343 249 78 15 24 94 192 77 79 302 340 177 77 37 57 117 341 262 250 139 149 159 177 175 166 162 174 164 139 125 126 115 108 96 94 96 84 119 141 173 143 155 153 161 175 177 174 167 166 176 183 166 117
3 25 42 29 89 82 179 258 332 329 328 292 44 71 340 2 53 15 308 281 8 42 303 103 181 154 95 62 345 299 139 161 45 38 103 280 108 164 28 88 302 73 11 64 267 51 60 353 6 42 87 330 96 175 169 174 177 183 174 173 164 154 139 148 150 142 151 168 180 184 161 168 160 173 136 131 163 162 148 153 159 177 162 155 156 153 140
25 39 24 22 84 247 273 302 337 325 53 52 324 104 109 333 96 260 300 65 353 301 28 100 200 156 175 153 153 131 345 79 111 197 142 327 351 134 234 90 266 90 118 106 217 37 112 116 303 82 186 263 221 242 155 177 172 206 184 164 151 156 158 159 178 166 163 171 169 179 182 161 150 146 155 167 150 140 147 176 173 175 154 157 164 154 166
8 6 22 50 271 312 304 309 330 47 64 41 9 6 65 331 325 187 64 58 118 221 232 152 29 67 23 58 69 133 280 89 148 130 111 94 248 89 67 113 216 82 333 221 270 70 74 76 25 145 209 224 209 192 154 173 171 153 166 150 143 153 157 142 134 130 120 112 110 127 144 149 148 149 163 167 157 162 167 173 182 188 155 141 165 200 197
257 222 247 293 285 290 321 349 55 53 7 75 119 242 256 212 332 4 110 136 227 226 333 89 116 137 197 169 174 131 20 200 123 100 96 102 310 113 161 242 11 106 191 235 144 69 78 119 162 253 254 234 234 174 146 162 167 139 146 146 146 152 142 133 118 119 148 137 148 145 153 147 145 149 164 161 158 158 155 161 165 175 176 200 201 145 145
296 259 156 294 345 328 88 62 313 106 116 12 45 60 346 99 217 168 248 280 301 99 240 70 171 135 30 63 49 70 169 232 126 7 73 142 295 58 85 26 64 105 194 6 72 64 77 161 199 235 222 200 194 177 184 172 161 150 157 160 157 156 141 139 137 139 150 136 145 146 153 139 146 164 160 138 116 125 148 168 170 170 184 172 191 191 178
144 135 41 330 77 289 75 164 259 48 349 39 107 181 206 315 287 43 61 240 231 100 172 129 188 113 159 306 137 291 13 12 49 80 53 335 85 37 62 157 184 245 333 53 55 151 211 215 203 199 184 173 183 180 178 160 139 129 138 165 143 129 118 111 110 110 104 84 98 118 123 125 121 126 137 136 142 149 164 172 194 161 173 159 173 207 205
95 358 34 17 34 277 72 282 332 120 189 242 137 184 152 176 238 184 185 244 108 192 160 86 116 94 115 274 45 13 98 175 313 100 220 84 52 356 110 205 224 36 115 188 4 337 343 257 255 163 157 172 186 180 190 169 150 146 149 143 133 130 129 131 137 130 138 136 143 130 118 125 116 131 143 154 160 151 149 168 185 162 179 177 192 202 214
110 166 94 80 326 309 105 206 5 13 288 151 193 193 171 226 169 214 249 124 96 107 130 150 107 97 72 281 129 196 5 84 60 33 131 71 101 166 242 293 67 75 25 70 143 196 214 219 182 178 180 176 174 169 178 171 145 131 128 141 162 148 148 140 143 139 146 142 137 117 129 123 125 125 138 152 148 153 162 164 168 168 161 155 181 203 221
76 16 91 109 107 267 86 159 232 205 179 204 218 182 189 202 200 200 224 158 148 173 107 109 113 152 137 248 46 9 31 51 97 276 71 70 155 254 1 110 217 177 159 210 218 239 256 239 201 178 169 166 157 160 169 158 149 146 145 143 150 153 147 136 138 137 145 127 118 118 122 121 120 124 122 118 158 185 172 161 174 174 161 182 203 203 192
162 231 94 121 229 182 166 239 203 309 239 199 230 201 228 179 121 273 262 189 147 129 123 111 97 37 44 313 81 146 228 13 92 310 133 157 36 41 13 33 300 243 185 165 224 217 225 204 181 178 173 165 159 159 163 155 154 146 145 149 153 151 153 141 134 142 143 132 130 131 133 133 136 143 148 158 171 199 189 189 192 188 198 190 190 208 204
171 126 157 199 196 158 227 255 125 231 270 293 277 226 154 147 221 236 249 163 143 165 163 125 173 91 102 280 90 80 33 333 100 233 24 35 104 192 154 209 191 244 256 173 209 202 208 190 177 164 156 154 165 160 162 157 154 151 150 151 158 160 154 148 151 157 150 134 139 140 146 148 140 139 142 142 150 195 208 200 204 208 200 188 193 190 198
104 336 23 89 347 311 248 160 113 288 296 319 333 235 207 192 238 258 185 133 156 118 80 57 56 90 191 96 42 21 272 291 138 52 66 148 195 178 83 242 229 193 248 236 223 237 199 145 140 150 161 160 164 160 152 158 152 151 154 153 152 152 150 144 145 151 148 147 151 148 148 138 139 143 155 174 191 178 163 177 189 205 217 208 165 177 192
315 135 229 170 155 219 141 265 216 287 312 297 280 264 184 193 180 188 208 133 134 79 59 141 179 102 101 40 64 80 238 183 86 163 160 196 198 121 172 196 240 214 228 233 214 198 159 157 154 153 158 163 167 162 156 157 158 154 153 151 156 148 143 143 148 153 157 161 154 137 141 162 173 167 160 134 130 123 108 344 268 221 186 167 179 162 177
76 150 253 284 206 187 183 177 182 224 236 250 251 249 160 197 216 194 158 118 116 128 179 187 97 82 75 153 213 184 56 49 99 73 43 274 155 147 212 198 222 220 214 211 204 177 174 166 159 158 162 165 166 162 157 153 147 145 151 153 151 145 145 148 154 159 158 164 166 154 167 147 122 121 125 113 106 107 123 176 227 179 170 167 187 200 193